Погода в Гуаруже

Бразилия     23°59′23″S   46°15′38″W
темп.,
°C
ветер,
м/с
пор.,
м/с
влажн.,
%
обл.,
%
осадки,
мм/ч
давл.,
гПа
погр.,
м
27 февраля, сб
сб2700:00+24ссв1281100 0.4 1014299
03:00+23с118083 0.4 1013290
06:00+23сз228363 0.0 1013198
09:00+25зюз227640 0.0 1015497
12:00+26ююв327239 0.3 1015614
15:00+27юв347126 0.6 1013738
18:00+26всв347767 3.1 1013329
21:00+24всв458684 3.7 1014338
28 февраля, вс
вс2800:00+24ссз338296 1.6 1014170
03:00+24зсз227998 2.0 1013167
06:00+24зсз2276100 0.0 1013183
09:00+26всв117190 0.0 1014385
12:00+27ю327095 0.0 1014461
15:00+27ю337347 0.1 1012673
18:00+26вюв127860 1.3 1012399
21:00+24всв228577 3.7 1013203
1 марта, пн
пн100:00+24св228092 0.0 1013272
03:00+24с117965 0.0 1011205
06:00+24ссз117768 0.0 1012125
09:00+26з016884 0.0 1013291
12:00+27ююв437076 0.0 1012280
15:00+28вюв336856 0.3 1011528
18:00+27в347497 0.2 1011415
21:00+26ссв127598 0.2 1012164
2 марта, вт
вт200:00+26с1172100 0.0 101388
03:00+26с1170100 0.0 1012104
06:00+25зсз117283 0.0 1013147
09:00+28св126391 0.0 1014249
12:00+29юв4464100 0.0 1014252
15:00+29вюв346794 0.6 1012452
18:00+24ссв6691100 8.3 1011250
21:00+25ссз3381100 13.0 1014148
3 марта, ср
ср300:00+26ссз1173100 0.0 101466
03:00+26зсз1275100 0.4 101389
06:00+25юз6890100 2.3 1014494
09:00+25зюз3385100 3.4 1016248
12:00+25юв2284100 1.6 1016292
15:00+26в6780100 1.9 1014497
18:00+26в5680100 0.1 1013395
21:00+26всв5682100 0.1 1015352